User: anonymous   Login
Location: Kawakawa
(35.3830°S, 174.0670°E)
Time: 05:13:04
(UTC+13:00)
Language:

Cosmos 2333 Rocket - Orbit

View from above orbital plane
View from above orbital plane
View from above satellite
View from above satellite

Ground track
Ground track

The orbit data is extracted from the following two-line orbital elements,

1 24298U 96051B   19288.49222127  .00000079  00000-0  69143-4 0  9996
2 24298  70.8316  69.0990 0014998 347.0895  12.9839 14.12437654191888
Epoch (UTC): 15 October 2019 11:48:47
Eccentricity: 0.0014998
inclination: 70.8316°
perigee height: 840 km
apogee height: 862 km
right ascension of ascending node: 69.0990°
argument of perigee: 347.0895°
revolutions per day: 14.12437654
mean anomaly at epoch: 12.9839°
orbit number at epoch: 19188

The dashed part of the orbit path shows where the satellite is in the earth's shadow,  

DLR